This is the latest recevied weather packets stored in our database for station/object KG5APU. If no packets are shown the sender has not sent any weather packets the latest 10 day(s).
| Time | Temp. | Humidity | Pressure | Rain* | Wind** | Luminosity | Snow |
|---|---|---|---|---|---|---|---|
| 1777988401 | 22.78° C | 85% | 1005.9 hPa | 0 mm | - | 125 W/m² | - |
| 1777987800 | 22.78° C | 85% | 1006 hPa | 0 mm | - | 122 W/m² | - |
| 1777987195 | 22.22° C | 86% | 1006.2 hPa | 0 mm | - | 79 W/m² | - |
| 1777986595 | 22.22° C | 86% | 1005.7 hPa | 0 mm | - | 63 W/m² | - |
| 1777985990 | 22.22° C | 86% | 1005.9 hPa | 0 mm | - | 51 W/m² | - |
| 1777985389 | 21.67° C | 86% | 1005.8 hPa | 0 mm | - | 33 W/m² | - |
| 1777984787 | 21.67° C | 86% | 1005.6 hPa | 0 mm | - | 28 W/m² | - |
| 1777984186 | 21.67° C | 86% | 1005.3 hPa | 0 mm | - | 27 W/m² | - |
| 1777983586 | 21.67° C | 86% | 1005.5 hPa | 0 mm | - | 14 W/m² | - |
| 1777982985 | 21.67° C | 86% | 1004.9 hPa | 0 mm | - | 12 W/m² | - |
| 1777982380 | 21.67° C | 86% | 1005 hPa | 0 mm | - | 11 W/m² | - |
| 1777981775 | 21.67° C | 86% | 1005 hPa | 0 mm | - | 5 W/m² | - |
| 1777981174 | 21.67° C | 86% | 1005 hPa | 0 mm | - | 1 W/m² | - |
| 1777980571 | 21.67° C | 86% | 1004.9 hPa | 0 mm | - | 1 W/m² | - |
| 1777979971 | 21.67° C | 86% | 1005.1 hPa | 0 mm | - | 0 W/m² | - |
| 1777979369 | 21.67° C | 86% | 1004.8 hPa | 0 mm | - | 0 W/m² | - |
| 1777978768 | 21.67° C | 86% | 1004.6 hPa | 0 mm | - | 0 W/m² | - |
| 1777978167 | 21.67° C | 86% | 1004.7 hPa | 0 mm | - | 0 W/m² | - |
| 1777977566 | 21.67° C | 86% | 1004.7 hPa | 0 mm | - | 0 W/m² | - |
| 1777976967 | 21.67° C | 86% | 1004.9 hPa | 0 mm | - | 0 W/m² | - |
| 1777976366 | 21.67° C | 86% | 1004.9 hPa | 0 mm | - | 0 W/m² | - |
| 1777975762 | 21.67° C | 86% | 1004.8 hPa | 0 mm | - | 0 W/m² | - |
| 1777975161 | 21.67° C | 85% | 1005 hPa | 0 mm | - | 0 W/m² | - |
| 1777974560 | 21.67° C | 86% | 1005.1 hPa | 0 mm | - | 0 W/m² | - |
| 1777973959 | 21.67° C | 86% | 1005.1 hPa | 0 mm | - | 0 W/m² | - |
* Rain latest hour (hover to see other rain measurements)
** Current wind speed in m/s (hover to see current wind gust speed)